TimeEST,TemperatureF,Dew PointF,Humidity,Sea Level PressureIn,VisibilityMPH,Wind Direction,Wind SpeedMPH,Gust SpeedMPH,PrecipitationIn,Events,Conditions,WindDirDegrees,DateUTC
12:53 AM,28.9,19.9,69,30.31,-9999.0,WNW,5.8,-,N/A,,Clear,290,2012-11-30 05:53:00
1:53 AM,28.9,19.9,69,30.32,10.0,WNW,6.9,-,N/A,,Clear,290,2012-11-30 06:53:00
2:53 AM,28.9,19.9,69,30.32,10.0,WNW,4.6,-,N/A,,Clear,300,2012-11-30 07:53:00
3:53 AM,26.1,19.9,78,30.31,10.0,NW,3.5,-,N/A,,Clear,310,2012-11-30 08:53:00
4:53 AM,27.0,19.9,75,30.32,10.0,NNW,3.5,-,N/A,,Clear,330,2012-11-30 09:53:00
5:53 AM,27.0,19.9,75,30.34,10.0,NNW,5.8,-,N/A,,Clear,330,2012-11-30 10:53:00
6:53 AM,23.0,19.0,85,30.37,10.0,Calm,Calm,-,N/A,,Overcast,0,2012-11-30 11:53:00
7:53 AM,28.9,21.0,72,30.37,10.0,NW,4.6,-,N/A,,Overcast,320,2012-11-30 12:53:00
8:53 AM,32.0,25.0,75,30.38,10.0,Calm,Calm,-,N/A,,Overcast,0,2012-11-30 13:53:00
9:53 AM,35.1,25.0,67,30.38,10.0,Calm,Calm,-,N/A,,Overcast,0,2012-11-30 14:53:00
10:53 AM,36.0,23.0,59,30.38,10.0,SE,3.5,-,N/A,,Overcast,130,2012-11-30 15:53:00
11:53 AM,35.1,21.0,57,30.38,10.0,East,3.5,-,N/A,,Overcast,100,2012-11-30 16:53:00
12:53 PM,36.0,23.0,59,30.36,10.0,ESE,3.5,-,N/A,,Overcast,120,2012-11-30 17:53:00
1:53 PM,35.1,24.1,64,30.37,10.0,SE,9.2,-,N/A,,Clear,140,2012-11-30 18:53:00
2:53 PM,35.1,24.1,64,30.36,10.0,ESE,8.1,-,N/A,,Clear,120,2012-11-30 19:53:00
3:53 PM,35.1,25.0,67,30.37,10.0,ESE,3.5,-,N/A,,Partly Cloudy,110,2012-11-30 20:53:00
4:53 PM,33.1,24.1,70,30.37,10.0,ESE,4.6,-,N/A,,Partly Cloudy,110,2012-11-30 21:53:00
5:53 PM,32.0,25.0,75,30.39,10.0,East,5.8,-,N/A,,Mostly Cloudy,100,2012-11-30 22:53:00
6:53 PM,30.9,25.0,79,30.41,10.0,East,6.9,-,N/A,,Overcast,100,2012-11-30 23:53:00
7:53 PM,30.0,25.0,82,30.40,10.0,East,8.1,-,N/A,,Mostly Cloudy,100,2012-12-01 00:53:00
8:53 PM,30.0,25.0,82,30.41,10.0,East,6.9,-,N/A,,Mostly Cloudy,90,2012-12-01 01:53:00
9:12 PM,30.2,24.8,80,30.34,10.0,East,6.9,-,N/A,,Overcast,100,2012-12-01 02:12:00
9:31 PM,30.2,24.8,80,30.34,10.0,East,9.2,-,N/A,,Overcast,100,2012-12-01 02:31:00
10:53 PM,30.0,27.0,88,30.41,10.0,ESE,8.1,-,N/A,,Overcast,110,2012-12-01 03:53:00
11:53 PM,30.0,27.0,88,30.43,8.0,East,8.1,-,N/A,,Overcast,90,2012-12-01 04:53:00